星链-4590 (STARLINK-4590 )

导读

STARLINK-4590是美国SpaceX星链星座中的一颗卫星,于2022年8月28日发射入轨,属于星链低轨互联网星座组网卫星,主要承担全球范围宽带互联网服务的组网任务,延续了星链星座批量制造发射、规模化部署的特征,运行在近地轨道,为偏远地区、移动载体等提供互联网接入服务。

基本信息
目录编号:
53606
目录名称:
STARLINK-4590
国际标识:
2022-104U
轨道中心:
EARTH
卫星名称:
星链-4590
卫星全名:
星链-4590 (STARLINK-4590 )
卫星状态:
在轨 (已飞行1389 天)
发射日期:
2022-08-28 UTC
国别 :
美国 (US)
星等 :
--
轨道信息
数据来源 国际轨道数据 AOE轨道数据
星历时间 2026-06-16T23:41:38+0800
16小时前
查看轨道信息
2026-06-15T12:00:00+0800
2天前
查看轨道信息
半长轴 6917.911km 6917.877km
偏心率 0.000127 0.0001767
轨道倾角 53.161° 53.159°
近地点辐角 85.001° 90.174°
升交点赤经 149.874° 156.559°
平近点角 275.113° 107.160°
近地点 538.895km 538.517km
远地点 540.653km 540.963km
周期 95.438分钟 95.437分钟
每日圈数 15.088303 15.088412
详细信息
固有亮度:
5
最大亮度:
2.5
卫星平台:
Starlink v1.5
覆盖范围:
全球
运营商:
太空探索技术公司
运营商所在国:
美国
制造商(研发单位):
太空探索技术公司
制造商所在国:
美国
使用方式:
暂无
卫星简介
星链(Starlink)计划是由太空探索技术公司(SpaceX)提出的一个巨型低轨卫星互联网星座项目,计划在2019年至2024年间在太空搭建由约1.2万颗卫星组成的“星链”网络,其中1584颗将部署在地球上空550千米处的近地轨道,并从2020年开始工作。该卫星仍在工作。
2D轨道图
3D轨道图
轨道高度分析图
轨道倾角分析图
轨道综合分析图
查看轨道综合分析图